Regional Weather Roundup
Issued by NWS

Home | Current Version | Previous Version | Graphics & Text | Print | Product List | Glossary Off
Versions: 1 2 3 4 5 6 7 8 9 10 11 12 13 14 15 16 17 18 19 20 21 22 23 24 25 26 27 28 29 30 31 32 33 34 35 36 37 38 39 40 41 42 43 44 45 46 47 48 49 50

000
ASUS43 KTOP 070659
RWRKS

WEATHER ROUNDUP FOR KANSAS
NATIONAL WEATHER SERVICE GOODLAND KS
200 AM CDT TUE JUL 07 2015

NOTE:  "FAIR" INDICATES FEW OR NO CLOUDS BELOW 12,000 FEET WITH NO
SIGNIFICANT WEATHER AND/OR OBSTRUCTIONS TO VISIBILITY.

KSZ001>006-013>018-027>032-041>047-070800-
NORTHWEST KANSAS

CITY           SKY/WX    TMP DP  RH WIND       PRES   REMARKS
GOODLAND       CLOUDY    62  52  69 E7        30.24R
HAYS           CLOUDY    68  54  60 N15G21    30.12R
HILL CITY      MOCLDY    63  56  78 N9        30.16R HAZE
RUSSELL        CLOUDY    68  60  75 N13G21    30.09R HAZE
$$

KSZ061>065-074>080-084>089-070800-
SOUTHWEST KANSAS

CITY           SKY/WX    TMP DP  RH WIND       PRES   REMARKS
DODGE CITY     CLOUDY    68  57  68 N13       30.11S HAZE
ELKHART          N/A     67  52  59 N10         N/A
GARDEN CITY    CLOUDY    65  54  67 N10       30.15S HAZE
GREAT BEND     CLOUDY    70  59  68 N15       30.08S
LIBERAL        CLOUDY    70  57  64 NE14      30.14S
$$

KSZ066>073-081>083-090>101-070800-
SOUTHEAST KANSAS

CITY           SKY/WX    TMP DP  RH WIND       PRES   REMARKS
CHANUTE        LGT RAIN  72  72 100 NW3       29.94S
COFFEYVILLE    CLOUDY    72  71  97 SW3       29.93S
HUTCHINSON     CLOUDY    69  64  84 N15G22    30.01S HAZE
MEDICINE LODGE   N/A     68  66  93 NE17G28   30.00R
NEWTON         CLOUDY    64  61  88 NE21      30.02S
PARSONS        CLOUDY    72  71  97 NW6       29.93F
WICHITA INTL   LGT RAIN  68  66  93 N16G26    29.99R FOG
WICHITA JABRA  LGT RAIN  66  66 100 N20G28    29.98R FOG
WICHITA MCCONL RAIN      68  66  94 NE18      29.98R
WINFIELD       CLOUDY    71  70  96 SW9       29.97R
$$

KSZ007>012-019>026-033>040-048>060-102>105-070800-
NORTHEAST KANSAS

CITY           SKY/WX    TMP DP  RH WIND       PRES   REMARKS
CONCORDIA      CLOUDY    65  59  81 N10       30.08S HAZE
EMPORIA        RAIN      65  64  97 N14G25    29.97F FOG
LAWRENCE       RAIN      66  63  90 N10       29.97S FOG
MANHATTAN      CLOUDY    69  61  75 N14       30.02R HAZE
OLATHE IND     CLOUDY    67  66  97 N17G28    29.97R FOG
OLATHE EXE     RAIN      68  68 100 N16       29.94S FOG
SALINA         CLOUDY    71  62  73 N16       30.04S HAZE
TOPEKA BILLARD HVY RAIN  63  61  93 N22G32    29.99S FOG
TOPEKA FORBES  HVY RAIN  65  62  90 N20G28    29.99R FOG
$$


USA.gov is the U.S. government's official web portal to all federal, state and local government web resources and services.